{"data":{"norad_id":66095,"epoch":"2026-05-25T03:37:04.229760Z","epoch_age_seconds":65101,"freshness":"FRESH","line1":"1 66095U 25236K   26145.15074340  .00022206  00000+0  76001-3 0  9994","line2":"2 66095  53.1603 108.5362 0000925 111.5541 248.5559 15.30183034 34659","mean_motion":15.30183034,"eccentricity":9.25e-5,"inclination_deg":53.1603,"raan_deg":108.5362,"arg_perigee_deg":111.5541,"mean_anomaly_deg":248.5559,"bstar":0.00076001,"rev_number":3465,"period_min":94.106389105344,"perigee_km":474.63178755296,"apogee_km":475.89966705751,"semimajor_km":6853.4027273052,"source":"CELESTRAK","updated_at":"2026-05-25T13:38:21.028679Z"}}